Regional Weather Roundup
Issued by NWS

Home | Current Version | Previous Version | Graphics & Text | Print | Product List | Glossary Off
Versions: 1 2 3 4 5 6 7 8 9 10 11 12 13 14 15 16 17 18 19 20 21 22 23 24 25 26 27 28 29 30 31 32 33 34 35 36 37 38 39 40 41 42 43 44 45 46 47 48 49 50

000
ASUS43 KDMX 111106
RWRIA

WEATHER ROUNDUP FOR IOWA
NATIONAL WEATHER SERVICE DES MOINES IA
500 AM CST MON DEC 11 2017

NOTE: "FAIR" INDICATES FEW OR NO CLOUDS BELOW 12,000 FEET WITH NO
SIGNIFICANT WEATHER AND/OR OBSTRUCTIONS TO VISIBILITY.

* - THESE STATIONS ARE NOT NWS STATIONS...THUS NOT UNDER NWS
QUALITY CONTROL.  THEY ALSO DO NOT REPORT WEATHER SUCH
AS PRECIPITATION OR FOG.

IAZ001>003-012>014-020>022-031>034-043>046-111200-
   NORTHWEST IOWA

CITY           SKY/WX    TMP DP  RH WIND       PRES   REMARKS
CARROLL *      CLOUDY    37  23  56 W10       29.84F WCI  30
CHEROKEE *     CLOUDY    33  24  71 SW5       29.84F WCI  28
DENISON *      PTCLDY    30  23  74 SW7       29.88F WCI  23
LE MARS *      CLOUDY    36  23  60 SW5       29.86F WCI  32
ORANGE CITY *  CLOUDY    34  27  75 W7        29.83F WCI  28
SHELDON *      CLOUDY    30  25  80 SW6       29.79F WCI  24
SIOUX CITY     CLOUDY    32  20  61 NW8       29.88F WCI  25
SPENCER        CLOUDY    33  25  72 SW10      29.79F WCI  25
STORM LAKE *   CLOUDY    36  23  60 W13       29.82F WCI  27
$$

IAZ055>058-069>071-079>083-090>094-111200-
   SOUTHWEST IOWA

CITY           SKY/WX    TMP DP  RH WIND       PRES   REMARKS
ATLANTIC *     CLOUDY    30  23  74 SW7       29.88F WCI  23
AUDUBON *      PTCLDY    34  25  69 CALM      29.88F
CLARINDA *     CLOUDY    32  21  64 SW5       29.93  WCI  27
COUNCIL BLFS * PTCLDY    39  19  45 W5        29.91F
CRESTON *      CLOUDY    34  23  64 SW8       29.88F WCI  27
HARLAN  *      MOCLDY    36  21  55 W15       29.92S WCI  26
LAMONI         PTCLDY    35  24  64 SW13      29.88F WCI  26
RED OAK *      CLOUDY    37  21  52 W9        29.91F WCI  31
SHENANDOAH *   PTCLDY    32  21  64 CALM      29.93F
$$

IAZ047>049-059>061-072>074-084-111200-
   CENTRAL IOWA

CITY           SKY/WX    TMP DP  RH WIND       PRES   REMARKS
AMES           CLOUDY    31  25  78 CALM      29.84F
ANKENY *       PTCLDY    32  25  74 SE8       29.87F WCI  25
BOONE *        PTCLDY    34  25  69 SW6       29.83F WCI  29
CHARITON *     PTCLDY    36  25  64 SW9       29.87F WCI  29
DES MOINES     CLOUDY    33  25  72 CALM      29.87F
GRINNELL*      CLOUDY    32  26  78 S6        29.88F WCI  26
KNOXVILLE *    CLOUDY    32  25  74 S7        29.86F WCI  26
MARSHALLTOWN   CLOUDY    34  25  69 S8        29.84F WCI  27
NEWTON *       CLOUDY    30  25  80 S6        29.87F WCI  24
PELLA *        MOCLDY    31  25  76 CALM      29.89F
PERRY *          N/A     30  22  71 SW5       29.84F WCI  25
$$

IAZ004>006-015-016-023>025-035-036-111200-
   NORTH CENTRAL IOWA

CITY           SKY/WX    TMP DP  RH WIND       PRES   REMARKS
ALGONA *       CLOUDY    34  25  69 SW13      29.77F WCI  25
CLARION *      CLOUDY    32  25  74 S10       29.81F WCI  24
ESTHERVILLE    CLOUDY    35  26  69 W15       29.75F WCI  25
FORT DODGE *   CLOUDY    34  24  67 SW6       29.83F WCI  29
MASON CITY     CLOUDY    30  24  78 S5        29.81F WCI  25
FOREST CITY *    N/A     32  27  80 SW7       29.78F WCI  26
WEBSTER CITY * CLOUDY    34  23  64 S12       29.80F WCI  25
IOWA FALLS *     N/A     33  26  75 S9        29.84F WCI  26
$$

IAZ007>011-017>019-026>030-037>042-050>054-066-111200-
   NORTHEAST IOWA

CITY           SKY/WX    TMP DP  RH WIND       PRES   REMARKS
CEDAR RAPIDS   MOCLDY    30  24  78 S12       29.87F WCI  20
CHARLES CITY * CLOUDY    28  25  86 S8        29.83F WCI  20
CLINTON *      CLOUDY    27  24  89 S16       29.90F WCI  15
DECORAH *      CLOUDY    27  23  86 SE7       29.83F WCI  19
DUBUQUE        CLOUDY    26  22  84 S7        29.91F WCI  18
MONTICELLO *   CLOUDY    30  23  74 S5        29.91R WCI  25
OELWEIN *      CLOUDY    28  27  93 S10       29.86F WCI  19
WATERLOO       CLOUDY    30  23  75 S8        29.84F WCI  22
$$

IAZ064-065-067-068-078-111200-
   EAST CENTRAL IOWA

CITY           SKY/WX    TMP DP  RH WIND       PRES   REMARKS
DAVENPORT      PTCLDY    28  22  78 S6        29.96F WCI  22
IOWA CITY      CLOUDY    31  24  75 S3        29.94F
MT. PLEASANT * CLOUDY    28  23  81 S7        29.94F WCI  21
MUSCATINE *    CLOUDY    30  25  80 CALM      29.95F
QUAD CITIES    PTCLDY    30  24  78 S5        29.94F WCI  25
$$

IAZ062-063-075>077-085>089-095>099-111200-
   SOUTHEAST IOWA

CITY           SKY/WX    TMP DP  RH WIND       PRES   REMARKS
BURLINGTON     CLOUDY    30  25  81 S7        29.95F WCI  23
FAIRFIELD *    CLOUDY    30  23  74 S10       29.91F WCI  21
FORT MADISON * PTCLDY    32  27  80 S7        29.95F WCI  26
KEOKUK *       CLOUDY    32  25  74 S7        29.95F WCI  26
OSKALOOSA *      N/A     29  25  84 S6        29.89F WCI  23
OTTUMWA        PTCLDY    30  24  78 S8        29.90F WCI  22
WASHINGTON *   PTCLDY    30  27  86 S7        29.93F WCI  23
$$

ABBREVIATIONS USED IN REMARKS
   TC - TEMPERATURES IN CELSIUS
  WCI - WIND CHILL INDEX
   HX - HEAT INDEX
  VSB - VISIBILITY
$$




USA.gov is the U.S. government's official web portal to all federal, state and local government web resources and services.